Simultaneous Nadir Overpasses (SNOs) Predictions

Prediction of SNOs between AQUA and NPP Satellite Orbit:

Table of predicted SNOs for the next 14.0 days since TLE Epoch: 7/31/2020
Index Date (AQUA) Time (AQUA) Lat,Lon (AQUA) SZA (AQUA ) Date (NPP) Time (NPP) Lat,Lon (NPP) SZA (NPP ) Distance(km) Time Diff (sec)
1 08/01/2020 21:49:09 -74.86, -91.33 98.51 08/01/2020 21:48:02 -74.86, -91.35 98.44 0.63 67
2 08/01/2020 22:38:14 75.90, 79.22 80.30 08/01/2020 22:38:24 75.90, 79.14 80.32 2.55 10
3 08/04/2020 14:05:28 -75.36, 25.89 98.40 08/04/2020 14:04:48 -75.36, 25.89 98.37 0.28 40
4 08/04/2020 14:54:35 76.29,-163.67 80.52 08/04/2020 14:55:12 76.29,-163.74 80.51 1.99 37
5 08/07/2020 06:21:48 -75.81, 143.05 98.21 08/07/2020 06:21:35 -75.81, 143.06 98.20 0.42 13
6 08/07/2020 07:10:56 76.67, -46.51 80.78 08/07/2020 07:12:00 76.67, -46.55 80.73 1.13 64
7 08/09/2020 21:49:08 74.89, 88.75 83.57 08/09/2020 21:48:05 74.89, 88.72 83.63 0.88 63
8 08/09/2020 22:38:08 -76.24, -99.73 97.99 08/09/2020 22:38:22 -76.24, -99.68 98.01 1.36 14
9 08/12/2020 14:05:26 75.38,-154.05 83.77 08/12/2020 14:04:50 75.38,-154.05 83.80 0.16 36
